Regional Weather Roundup
Issued by NWS

Home | Current Version | Previous Version | Text Only | Print | Product List | Glossary Off
Versions: 1 2 3 4 5 6 7 8 9 10 11 12 13 14 15 16 17 18 19 20 21 22 23 24 25 26 27 28 29 30 31 32 33 34 35 36 37 38 39 40 41 42 43 44 45 46 47 48 49 50

000
ASUS43 KBIS 272202
RWRND

NORTH DAKOTA REGIONAL WEATHER ROUNDUP
NATIONAL WEATHER SERVICE BISMARCK ND
500 PM CDT THU AUG 27 2015

NOTE: "FAIR" INDICATES FEW OR NO CLOUDS BELOW 12,000 FEET WITH NO
SIGNIFICANT WEATHER AND/OR OBSTRUCTIONS TO VISIBILITY.


NDZ001>003-009>011-017-272300-
NORTHWEST NORTH DAKOTA

CITY           SKY/WX    TMP DP  RH WIND       PRES   REMARKS
WILLISTON      FAIR      85  62  46 S8        29.89F
MINOT          FAIR      81  64  56 S7        29.90F
MINOT AFB      FAIR      82  65  56 S8        29.89F
$$

NDZ018>021-031>035-040>046-272300-
SOUTHWEST NORTH DAKOTA

CITY           SKY/WX    TMP DP  RH WIND       PRES   REMARKS
BISMARCK       FAIR      86  61  42 S7        29.92F
DICKINSON      FAIR      87  56  34 E8        29.91F
GARRISON         N/A     83  64  52 SE5       29.91F
HETTINGER ARPT FAIR      85  57  38 W7        29.94F
$$

NDZ004>008-012>016-024-026-027-054-272300-
NORTHEAST NORTH DAKOTA

CITY           SKY/WX    TMP DP  RH WIND       PRES   REMARKS
GRAND FORKS    PTSUNNY   78  63  59 SW9       29.91F
GRND FRKS AFB  FAIR      78  64  61 SW8       29.92F
DEVILS LAKE    FAIR      77  61  57 S9        29.91F
$$

NDZ022-023-025-028>030-036>039-047>053-272300-
SOUTHEAST NORTH DAKOTA

CITY           SKY/WX    TMP DP  RH WIND       PRES   REMARKS
FARGO          FAIR      79  65  62 VRB3      29.92F
JAMESTOWN      FAIR      77  67  71 S5        29.94F
$$



USA.gov is the U.S. government's official web portal to all federal, state and local government web resources and services.